ContactaLinksHome
    
DADES METEOROLÒGIQUES DE LES ÚLTIMES 24 HORES
 

Taire  Temperatura de l'aire  (ºC)
HumitatR  Humitat relativa de l'aire (%)
Pluja  Litres de pluja per metre cuadrat caiguts en 10 minuts (l/m²)
VelVent  Velocitat mitjana del vent (m/s)
DirVent  Direcció del vent  (º)
RadSolar  Intensitat de Radiació solar (w/m²)
PressAtm  Pressió atmosfèrica (mb)
  ***Dades sense verificar
DataTaireHumitatRPlujaVelVentDirVentRadSolarPressAtm
23/04/2017 5:10:0012.7610,02.530261018
23/04/2017 5:00:0012.8610,02.828011018
23/04/2017 4:50:0012.8610,03.129701017
23/04/2017 4:40:0012.7610,04.232201017
23/04/2017 4:30:0012.7610,03.830601017
23/04/2017 4:20:0012.9610,05.132101017
23/04/2017 4:10:0012.9610,03.732701017
23/04/2017 4:00:0013.0610,04.031701017
23/04/2017 3:50:0013.1610,02.931001017
23/04/2017 3:40:0013.2600,02.330901017
23/04/2017 3:30:0013.1620,02.129201018
23/04/2017 3:20:0012.8620,02.031001018
23/04/2017 3:10:0012.6630,02.331801018
23/04/2017 3:00:0012.6630,02.232501018
23/04/2017 2:50:0012.9630,02.232801018
23/04/2017 2:40:0013.5610,01.833501018
23/04/2017 2:30:0013.6590,00.5101018
23/04/2017 2:20:0013.6590,00.731201018
23/04/2017 2:10:0013.6580,00.927701018
23/04/2017 2:00:0013.6570,01.227201018
23/04/2017 1:50:0013.6570,01.330601018
23/04/2017 1:40:0013.7570,01.228701018
23/04/2017 1:30:0013.7560,00.829701018
23/04/2017 1:20:0013.7550,01.630701018
23/04/2017 1:10:0013.7540,01.530401018
23/04/2017 1:00:0013.7530,01.228901019
23/04/2017 0:50:0013.7560,02.228901019
23/04/2017 0:40:0013.6590,01.928301019
23/04/2017 0:30:0013.4620,02.430301019
23/04/2017 0:20:0013.4620,02.530201019
23/04/2017 0:10:0013.5620,02.431101019
23/04/2017 0:00:0013.5620,02.530601019
22/04/2017 23:50:0013.5630,02.829701019
22/04/2017 23:40:0013.6630,03.131501019
22/04/2017 23:30:0013.6630,03.632201020
22/04/2017 23:20:0013.7630,03.332701020
22/04/2017 23:10:0013.8620,02.831701020
22/04/2017 23:00:0013.9620,03.130701020
22/04/2017 22:50:0014.0620,03.231801020
22/04/2017 22:40:0014.1610,03.331801020
22/04/2017 22:30:0014.1610,02.831001020
22/04/2017 22:20:0014.2600,03.131401020
22/04/2017 22:10:0014.4600,02.832801020
22/04/2017 22:00:0014.5590,01.932301020
22/04/2017 21:50:0014.6580,02.030501020
22/04/2017 21:40:0014.7580,02.032601020
22/04/2017 21:30:0014.9570,02.230901020
22/04/2017 21:20:0015.0550,01.828901021
22/04/2017 21:10:0015.0550,01.229601021
22/04/2017 21:00:0015.0580,01.128801021
22/04/2017 20:50:0015.0580,02.024401021
22/04/2017 20:40:0015.1580,02.524701021
22/04/2017 20:30:0015.1580,02.524601021
22/04/2017 20:20:0015.2570,02.524701021
22/04/2017 20:10:0015.2570,03.024401021
22/04/2017 20:00:0015.3580,02.823201021
22/04/2017 19:50:0015.3580,03.124601021
22/04/2017 19:40:0015.3570,03.722701021
22/04/2017 19:30:0015.4580,03.522801020
22/04/2017 19:20:0015.4580,03.323101020
22/04/2017 19:10:0015.5580,03.222901020
22/04/2017 19:00:0015.6580,04.223401020
22/04/2017 18:50:0015.7570,03.522501020
22/04/2017 18:40:0015.8580,04.523531020
22/04/2017 18:30:0015.8570,04.7224101020
22/04/2017 18:20:0016.0560,05.4220181020
22/04/2017 18:10:0016.1550,05.3221541020
22/04/2017 18:00:0016.2550,05.3245841020
22/04/2017 17:50:0016.2540,05.82411151020
22/04/2017 17:40:0016.4540,05.92351461021
22/04/2017 17:30:0016.5510,06.02201781021
22/04/2017 17:20:0016.4560,06.52172101021
22/04/2017 17:10:0016.3590,07.92102441021
22/04/2017 17:00:0015.9580,08.72142771021
22/04/2017 16:50:0016.0600,08.72103111021
22/04/2017 16:40:0015.8590,09.32113421021
22/04/2017 16:30:0015.8580,09.42093731021
22/04/2017 16:20:0016.2580,08.82064031021
22/04/2017 16:10:0015.9600,09.12154331021
22/04/2017 16:00:0015.8600,09.72164631021
22/04/2017 15:50:0015.7600,010.12084921021
22/04/2017 15:40:0015.7600,010.32075201021
22/04/2017 15:30:0015.7610,010.32045471021
22/04/2017 15:20:0015.6620,010.22065751021
22/04/2017 15:10:0015.6610,010.32096011021
22/04/2017 15:00:0015.5610,010.92036291021
22/04/2017 14:50:0015.5610,011.12066571022
22/04/2017 14:40:0015.5610,011.02086851022
22/04/2017 14:30:0015.4620,011.72117111022
22/04/2017 14:20:0015.4640,011.32077361022
22/04/2017 14:10:0015.3640,011.32097581022
22/04/2017 14:00:0015.3650,011.22107811022
22/04/2017 13:50:0015.2680,011.42048041022
22/04/2017 13:40:0015.1710,010.92048231023
22/04/2017 13:30:0015.0700,011.22058431023
22/04/2017 13:20:0014.7700,011.62008611023
22/04/2017 13:10:0014.7700,011.82058791023
22/04/2017 13:00:0014.6700,011.42038941023
22/04/2017 12:50:0014.7690,011.52019071023
22/04/2017 12:40:0014.8680,011.72059201023
22/04/2017 12:30:0014.7680,011.72049291023
22/04/2017 12:20:0014.7680,011.12049381023
22/04/2017 12:10:0014.7690,011.12039411023
22/04/2017 12:00:0014.6680,011.12019461023
22/04/2017 11:50:0014.6680,010.72059481024
22/04/2017 11:40:0014.6680,010.82049491024
22/04/2017 11:30:0014.6680,010.92059491024
22/04/2017 11:20:0014.6670,010.92069461024
22/04/2017 11:10:0014.5660,011.12069411024
22/04/2017 11:00:0014.5670,011.02089351024
22/04/2017 10:50:0014.5660,011.02079261024
22/04/2017 10:40:0014.6660,010.42079151024
22/04/2017 10:30:0014.5650,010.42049011024
22/04/2017 10:20:0014.5660,09.82038851024
22/04/2017 10:10:0014.5660,09.32018671025
22/04/2017 10:00:0014.4660,08.12008451025
22/04/2017 9:50:0014.3680,07.82018251025
22/04/2017 9:40:0013.9700,07.61987991025
22/04/2017 9:30:0013.9690,07.71997741025
22/04/2017 9:20:0013.8680,07.31997481025
22/04/2017 9:10:0014.1660,07.62017201025
22/04/2017 9:00:0014.1620,07.21976911025
22/04/2017 8:50:0014.2620,05.81986591025
22/04/2017 8:40:0013.8620,01.72046151025
22/04/2017 8:30:0013.4600,02.81885871025
22/04/2017 8:20:0014.0580,03.11945571025
22/04/2017 8:10:0014.1490,01.62715321025
22/04/2017 8:00:0013.8480,01.93225021025
22/04/2017 7:50:0013.5490,02.33244701025
22/04/2017 7:40:0013.2490,02.73334401025
22/04/2017 7:30:0012.9500,03.03294101025
22/04/2017 7:20:0012.9500,02.53043781025
22/04/2017 7:10:0012.7510,02.93063471025
22/04/2017 7:00:0012.4490,03.53303141025
22/04/2017 6:50:0012.5500,03.33222811025
22/04/2017 6:40:0012.4510,03.03252471025
22/04/2017 6:30:0012.4550,02.12972141026
22/04/2017 6:20:0012.1570,01.72901831026
22/04/2017 6:10:0011.9570,01.32911531026
22/04/2017 6:00:0011.8580,01.22921231026
22/04/2017 5:50:0011.6580,01.6279941026
22/04/2017 5:40:0011.4600,02.2302671026
22/04/2017 5:30:0011.0600,02.8312421026
22/04/2017 5:20:0010.9610,02.8313161026

ÚLTIMES FOTOS WEBCAM
Imatges del Pont
ÚLTIMES DADES

23/04/2017  
7:10h Local  (5:10 GMT)
 
 Velocitat mitjana del Vent
   2,5 m/s
 Direcció del Vent
   302º
 Humitat Relativa
   61 %
 Temperatura Aparent
   12,7 ºC
 Pluja Acumulada
   0,0 l/m²
      
 Temperatura de l'aigua    N/A
 Alçada d'ona    N/A
 Direcció d'ona    N/A
 Velocitat del corrent    N/A
 Direcció del corrent    N/A